STARLINK-4256, 52994

Orbit data source: Space-Track

STARLINK-4256, 52994 is a payload satellite owned by SpaceX/Seattle (US) in LEO that was launched on Thu, 07 Jul 2022 UTC via an FALCON 9 launch vehicle from the Air Force Eastern Test Range (AFETR). Payload-class satellites include a variety of spacecraft equipped with specific instruments for various scientific and technological missions. These include communications satellites like Starlink; space stations such as the ISS; scientific satellites like the Hubble; Earth observation satellites from companies like Planet Labs, Umbra, and HawkEye 360; GPS; miniature CubeSats for education and research; and military/defense satellites.

Loading next visibility...
Identifier
52994, 2022-076J
Orbit
LEO
Country
Flag of USUS
Related business
Manufacturer
SpaceX/Seattle
Mission
Operational Commercial Communications
Bus & Motor
STARLINK, Unknown motor
Mass
297 kg wet, ~275 kg dry
Launch date (UTC)
2022-07-07 (3 years ago)
Launch vehicle
FALCON 9
Launch site
Air Force Eastern Test Range (AFETR)
Object type
Payload
Rocket body
Debris
Shape & HBR
Box + 1 Pan, 10.1 m
Radar Cross Section
13.562 m², Large (>1 m²)

Expand to show TLE details & history
Last TLE update: 12 hours ago

TLE from 12 hours ago
0 STARLINK-4256
1 52994U 22076J   25341.75920871  .00000725  00000-0  63668-4 0  9997
2 52994  53.2169 146.8120 0001403  99.2347 260.8804 15.08825366188965
Epoch: 2025-12-07T18:13Z
TLE epoch observation values (Epoch: 2025-12-07T18:13:15.632Z)
Latitude
-0.00001°
Longitude
156.72887°
Altitude
540.839 km
Speed
7.593 km/s
True Right ascension
09h 47m 14s
True Declination
0° 00' 00"
Sunlit
Object was in daylight at epoch
Visualization orbit readout
Latitude
Unknown
Longitude
Unknown
Altitude
Unknown
Speed
Unknown
Apparent Right ascension
Unknown
Apparent Declination
Unknown
Sunlit
N/A
Visualization observer readout
Local Sidereal Time
04:10:26
Azimuth
Unknown
Elevation
Unknown
Doppler factor
Unknown
Orbital elements
Apogee altitude
541.004 km
Perigee altitude
539.063 km
Semi-major axis
6,918.17 km
Eccentricity
0.00014
Inclination
53.2169°
RAAN
146.812°
Arg. of periapsis
99.2347°
True anomaly
260.86453°
Mean anomaly
260.8804°
Eccentric anomaly
260.87246°
Mean motion
3.77187 °/min
Orbital period
95.44 mins
BSTAR
0.000063668
Loading maneuver chart data...
Computing Atmospheric mass density...
Loading historical data...
Loading historical data...
Loading historical data...
Loading historical data...
Loading historical data...
Loading historical data...
Loading historical data...

Documentation

Showing up to 5 results
|